Temperature
22 21 20 20 19 19 19 19 19 19 19 18 18 18 18 18 18 18 18 18 18 18 18 17 17 17 17 17 17 17 17 18 18 18 18 18 18 18 18 18 18 18 18
22 21 20 20 19 19 19 19 19 19 19 18 18 18 18 18 18 18 18 18 18 18 17 18 17 17 18 18 17 18 17 18 18 18 18 19 19 18 18 18 18 18 18
22 21 20 20 19 19 19 19 19 19 19 18 18 17 17 18 17 17 18 18 18 18 18 18 18 18 17 18 18 17 17 17 17 18 18 19 19 19 18 18 18 18 17
23 21 21 20 20 19 19 19 19 19 19 18 18 18 18 18 18 18 18 18 18 18 18 18 18 18 17 18 17 18 17 17 18 18 18 18 18 18 19 18 18 18 17
23 21 21 20 20 20 19 19 19 19 19 18 18 18 18 18 17 17 17 18 18 18 18 18 18 18 18 18 17 17 17 17 17 17 17 17 17 18 18 18 18 18 17
23 21 21 20 20 20 19 19 19 19 19 18 18 18 18 18 17 17 17 17 17 18 18 18 18 18 18 18 18 17 17 17 17 17 17 17 17 18 18 18 17 17 17
23 22 21 20 20 20 19 19 19 19 19 18 18 18 18 18 18 18 17 17 18 18 18 18 18 18 18 18 18 18 17 17 17 17 17 17 17 17 17 17 17 17 17
23 22 21 21 20 20 19 19 18 18 18 18 18 18 18 17 18 18 17 17 17 18 18 17 17 18 18 17 17 17 17 17 17 17 17 17 17 17 17 17 17 17 17
23 22 21 21 20 20 19 19 18 18 18 18 18 18 18 18 17 17 17 17 17 17 17 17 17 17 17 17 17 17 17 17 17 17 17 17 17 17 17 17 17 17 17
23 22 21 21 20 20 19 19 18 18 18 18 18 18 18 17 17 17 17 17 17 17 17 17 17 17 17 17 17 17 17 17 17 17 17 17 17 17 17 16 16 16 17
23 22 21 20 20 20 20 19 19 18 18 18 18 17 17 17 17 17 17 17 17 17 17 17 17 17 17 17 17 17 17 17 17 17 17 17 17 17 16 16 16 16 16
22 21 20 20 20 19 19 19 18 18 18 18 18 17 17 17 17 17 17 17 17 17 17 17 17 17 17 17 17 16 16 16 16 16 16 16 16 16 16 16 16 16 16
21 21 20 19 19 19 19 19 18 18 18 18 17 17 17 17 17 17 17 17 17 17 17 16 16 16 16 16 16 16 16 16 16 16 16 16 16 16 16 16 16 16 15
21 20 20 19 19 18 18 18 18 18 18 17 17 17 17 17 17 17 17 17 17 16 16 16 16 16 16 16 16 16 16 16 15 15 15 15 15 15 16 15 15 15 15
20 20 19 19 18 18 18 18 18 18 17 17 17 17 17 17 17 17 16 16 16 16 16 16 16 16 15 16 16 16 15 15 15 15 15 15 15 15 15 15 15 15 15
20 19 19 18 18 18 18 18 17 17 17 17 17 17 16 17 16 16 16 16 16 16 16 16 16 15 15 16 16 15 15 15 15 15 15 15 15 15 15 15 15 15 15
19 19 18 18 18 18 18 17 17 17 17 17 16 16 16 16 16 16 16 16 16 16 16 15 15 15 15 15 15 15 15 14 14 15 14 14 15 15 15 15 15 15 15
19 18 18 17 17 17 17 17 17 16 17 17 17 16 16 16 16 16 16 15 15 15 15 15 15 15 15 15 15 15 14 14 14 14 14 14 14 14 14 14 14 14 14
18 17 17 17 17 17 17 17 16 16 16 16 16 16 16 15 15 15 15 15 15 15 15 15 15 14 14 15 15 14 14 14 14 14 14 14 14 14 14 14 14 14 14
17 17 17 17 17 17 17 16 16 16 16 16 16 16 16 15 15 15 15 15 15 14 14 14 14 14 14 14 14 14 14 14 14 14 14 14 14 14 14 14 13 13 13
17 17 17 16 16 16 16 16 16 16 16 15 15 15 15 15 15 15 15 14 14 14 14 14 14 14 14 14 14 14 14 14 14 14 14 14 14 14 14 13 13 13 13
16 16 16 16 16 16 16 16 15 15 15 15 15 15 15 14 14 14 14 14 14 14 14 13 13 13 13 14 14 14 14 14 13 13 13 13 13 14 13 13 13 13 13
16 15 15 15 15 15 15 15 15 15 15 15 14 14 14 14 14 14 14 14 13 13 13 13 13 13 13 13 13 13 13 13 13 13 13 13 13 13 13 13 13 12 12
15 15 15 15 15 15 15 15 15 15 15 14 14 14 14 14 13 13 13 13 13 13 13 13 13 13 13 13 13 13 13 13 13 13 13 13 13 12 12 12 12 12 12
14 14 14 15 15 14 14 14 14 14 14 14 14 13 13 13 13 13 13 13 13 13 13 13 13 13 13 13 13 13 13 13 12 12 13 12 12 12 12 12 12 12 12
14 14 14 14 14 14 14 14 14 14 14 14 13 13 13 13 13 13 12 13 13 13 13 13 13 12 12 12 12 12 12 12 12 12 12 12 12 12 12 12 12 12 11
Wind_Speed
6 7 8 8 8 8 7 7 7 6 5 4 4 4 4 3 3 3 3 4 4 4 4 3 2 2 2 2 2 2 2 1 1 2 2 2 2 2 2 2 2 2 3
6 7 7 8 8 9 9 8 8 7 6 5 4 3 3 3 3 3 3 4 4 4 4 4 3 2 2 2 2 2 2 2 2 2 3 2 2 2 1 2 2 2 2
6 7 8 8 8 9 9 8 8 7 7 6 5 3 3 3 3 3 3 4 4 4 4 4 4 3 3 2 2 3 3 2 2 2 2 3 2 1 1 1 1 1 2
6 7 8 8 9 8 8 8 8 8 7 7 6 5 5 4 3 3 3 3 4 5 5 5 4 4 4 3 4 3 3 4 3 2 2 2 2 3 1 2 2 2 2
6 7 8 9 8 8 8 8 8 8 8 8 7 6 5 4 3 3 3 4 4 4 5 5 5 5 5 5 5 4 4 4 4 3 3 3 3 4 3 2 2 2 3
6 7 7 8 8 8 8 8 7 7 7 7 7 7 6 5 5 4 4 4 3 4 5 5 5 5 5 5 5 5 5 5 4 4 4 4 3 3 3 4 4 3 3
7 7 8 8 8 8 8 8 8 7 7 7 6 6 7 7 7 6 5 5 4 4 4 4 5 5 5 5 5 5 5 5 5 5 4 4 4 4 4 5 4 3 3
6 6 7 7 7 8 8 8 8 7 7 7 7 6 6 6 5 6 5 4 4 4 4 4 5 5 6 5 5 5 6 5 5 6 5 5 4 4 4 4 4 4 4
4 5 6 7 7 7 8 8 8 7 7 7 7 6 6 6 5 5 5 5 4 4 4 5 5 5 5 5 6 5 5 5 5 5 5 5 4 4 4 5 5 5 5
3 4 5 5 6 6 7 7 7 7 7 7 6 5 6 6 5 5 5 5 5 4 4 5 5 5 5 5 5 5 5 6 6 5 5 5 4 4 4 4 4 5 6
1 3 4 4 4 5 6 7 7 7 7 7 6 6 5 5 5 5 5 5 5 5 5 5 4 4 5 5 5 6 6 6 6 6 6 5 5 5 4 4 4 4 5
1 3 4 4 4 4 5 6 6 6 7 6 6 6 5 5 5 5 5 6 5 5 5 5 5 5 5 5 5 6 6 6 6 6 6 6 5 5 5 4 5 4 5
2 3 4 3 3 2 3 4 5 6 6 6 6 5 5 5 6 6 5 5 5 5 5 5 5 5 5 5 6 6 6 7 6 6 7 7 6 6 5 5 5 5 5
1 2 3 2 2 2 2 2 4 5 5 6 6 6 6 5 5 5 5 4 5 5 5 5 5 5 5 5 6 6 6 7 7 7 7 7 6 6 6 5 6 5 5
0 0 1 1 2 1 2 2 3 4 5 5 6 6 6 5 5 5 4 4 5 5 5 5 5 5 5 4 5 6 7 6 6 6 7 7 5 5 5 5 5 5 5
1 1 1 1 2 2 2 2 2 3 4 6 6 5 5 4 4 5 5 4 5 5 5 5 5 5 4 3 4 6 6 6 6 6 7 7 6 5 6 5 5 6 7
1 1 1 1 2 2 2 2 2 3 4 4 5 4 4 4 5 5 5 5 5 5 5 5 5 5 4 3 4 5 6 6 6 6 6 6 4 4 5 5 7 7 7
2 2 2 2 2 2 2 2 2 2 3 4 4 3 3 4 3 4 4 4 4 4 5 5 5 5 3 2 3 5 5 5 5 6 6 5 5 4 4 5 5 6 6
2 2 2 2 1 0 0 2 2 2 3 3 4 4 4 4 4 4 4 3 3 4 4 4 4 4 3 2 3 5 4 4 4 4 4 5 5 2 3 5 5 5 4
1 1 1 1 1 1 0 1 2 2 3 4 4 3 4 4 4 4 3 3 3 3 3 2 2 3 3 1 2 4 4 3 4 3 3 2 2 2 3 5 5 5 5
1 1 1 1 2 1 0 0 2 2 3 3 3 3 3 3 3 3 2 2 3 2 2 2 2 2 2 1 1 3 3 3 3 3 2 1 1 1 3 5 4 4 5
1 2 1 2 2 2 1 1 2 2 2 1 1 2 2 2 2 2 2 2 2 2 2 2 2 1 1 1 1 2 3 4 3 2 2 0 1 2 3 3 2 5 5
1 1 1 1 2 2 2 2 2 2 1 1 1 1 1 1 1 2 2 3 3 2 2 2 1 1 1 0 1 3 3 4 3 2 1 1 3 5 4 3 5 5 3
1 1 1 2 2 3 3 2 2 1 1 1 0 0 1 1 1 1 2 2 2 2 2 2 2 1 1 1 1 1 1 2 2 2 2 4 5 4 2 3 2 2 1
1 1 1 1 2 2 2 2 1 1 1 0 0 1 1 1 1 1 1 1 1 2 3 3 2 3 2 1 3 2 2 2 2 3 2 1 1 1 1 1 1 1 1
1 1 1 2 2 2 2 2 1 0 0 0 1 1 1 1 1 1 0 3 1 2 1 2 3 2 1 0 0 1 2 2 3 2 2 1 1 1 1 1 1 1 1
Wind_Direction
179 176 180 178 175 174 178 181 184 181 187 193 196 197 201 210 214 224 215 231 241 234 240 258 234 251 257 264 261 251 221 236 272 267 264 245 224 220 228 240 253 239 237
174 173 175 176 181 181 185 188 190 188 192 196 206 212 218 221 221 233 220 233 238 239 235 244 253 246 255 246 248 248 254 260 264 276 279 263 214 191 224 234 229 255 250
182 182 184 185 185 187 193 194 194 190 195 198 202 206 212 230 225 228 229 233 240 241 249 247 251 251 256 250 243 241 241 253 254 271 282 284 300 305 192 227 238 248 266
188 188 190 191 192 193 193 195 194 194 195 199 208 212 218 222 226 235 237 233 234 241 241 241 245 254 257 254 251 243 249 250 254 238 241 278 297 281 268 220 215 224 250
195 192 194 194 194 192 190 190 190 195 199 205 209 219 229 229 225 228 231 241 234 234 240 239 242 245 251 253 260 262 255 251 258 263 252 243 240 254 263 269 264 246 247
194 193 191 190 192 192 191 190 189 197 200 206 213 220 228 233 233 234 236 238 239 234 232 236 239 243 249 249 250 251 244 251 260 267 266 257 252 252 255 257 256 266 263
193 193 191 191 192 193 194 196 193 200 203 206 215 222 226 228 231 238 236 245 250 244 239 244 242 245 242 247 252 248 255 248 247 252 260 263 264 261 255 257 261 267 269
192 195 194 193 196 196 196 197 197 200 202 207 215 220 225 229 234 235 244 241 254 259 260 252 249 248 247 248 246 249 248 246 245 252 257 258 257 261 255 256 257 262 262
189 190 188 191 195 195 197 200 199 202 204 207 213 216 221 229 235 239 242 246 251 254 248 251 254 254 253 253 253 252 253 250 250 252 248 250 251 249 252 252 250 255 263
171 175 179 187 192 195 194 197 199 202 205 207 214 215 221 229 234 240 244 248 251 255 257 256 256 258 257 253 252 252 249 249 248 251 255 256 253 250 248 248 248 247 255
156 167 169 176 184 192 192 195 199 201 204 207 212 221 221 226 231 236 243 248 252 252 254 255 256 258 261 261 253 254 252 251 252 251 245 244 252 257 255 250 247 242 241
122 154 156 158 173 187 191 194 201 202 206 207 210 217 225 228 232 235 241 245 248 248 245 249 253 257 257 257 255 258 255 253 253 252 252 250 244 245 253 254 250 243 238
103 140 147 152 162 175 191 196 206 207 208 208 213 219 227 230 236 241 242 242 245 247 246 244 249 258 263 261 259 258 257 255 256 255 251 250 245 244 246 248 247 244 240
105 133 149 165 179 180 189 208 215 211 210 211 216 220 227 231 236 239 240 242 245 245 244 246 251 255 258 260 261 258 255 254 253 252 250 247 242 239 240 238 238 241 242
152 163 193 186 209 220 216 222 233 221 217 218 223 225 227 228 233 236 239 241 245 244 247 249 253 257 254 260 263 259 255 254 254 251 251 248 240 237 235 243 238 238 241
251 265 285 256 231 234 248 248 249 236 222 222 227 228 228 228 231 234 237 241 244 248 247 249 253 256 263 286 286 269 263 258 253 252 251 249 230 217 217 225 234 239 238
278 284 279 276 268 253 238 237 253 256 234 227 230 233 234 231 233 238 238 243 245 245 245 246 250 253 260 263 262 267 263 260 257 255 252 254 250 225 233 223 223 231 235
291 299 293 283 284 266 242 229 234 248 246 230 226 230 231 235 239 243 244 248 252 250 248 246 246 247 246 241 252 264 252 261 264 254 246 243 248 248 250 241 239 242 241
291 295 297 301 329 325 233 222 236 244 248 243 240 238 233 230 234 242 247 248 252 254 253 245 243 248 249 241 258 263 251 251 258 257 250 240 235 239 259 242 243 248 249
333 340 350 18 17 359 280 229 246 252 260 256 249 246 232 229 233 242 245 244 247 250 255 244 239 243 256 237 268 270 255 255 254 248 239 210 237 247 244 242 244 249 257
354 355 8 25 27 20 41 296 284 279 282 267 248 239 227 225 229 236 235 243 241 245 249 248 233 225 238 196 218 274 262 272 276 278 272 253 134 226 250 258 250 253 257
6 1 354 6 25 24 0 314 321 317 305 276 234 230 231 229 216 218 226 231 235 235 239 236 244 238 221 216 199 229 266 287 275 282 293 283 148 213 229 239 246 249 248
344 342 342 358 21 17 350 328 336 330 313 286 245 221 231 228 208 210 217 219 224 236 240 240 252 276 298 214 184 217 241 259 265 288 336 284 228 221 207 194 223 235 240
306 319 335 355 351 342 348 348 354 327 293 283 218 170 159 198 204 218 224 224 226 229 237 247 254 262 265 323 337 313 299 250 260 288 214 206 217 227 220 196 212 235 236
279 288 298 317 319 328 339 351 5 346 324 319 152 145 161 172 179 208 275 252 280 262 254 258 262 261 266 351 360 321 317 312 297 280 250 208 188 224 218 227 232 234 225
276 278 289 300 304 319 338 349 342 233 254 219 215 212 190 179 200 186 82 36 17 85 60 323 292 292 310 17 285 303 294 278 263 247 214 205 230 252 248 246 236 225 232
Height
1526 1528 1529 1530 1532 1532 1533 1535 1536 1537 1538 1539 1540 1542 1543 1543 1544 1544 1544 1545 1545 1545 1545 1546 1546 1545 1546 1545 1546 1546 1546 1546 1546 1546 1546 1546 1545 1545 1545 1545 1545 1545 1544
1524 1526 1527 1529 1530 1531 1532 1533 1534 1536 1537 1538 1539 1541 1542 1542 1543 1543 1543 1543 1544 1544 1545 1544 1545 1545 1544 1544 1544 1544 1545 1545 1545 1545 1545 1544 1545 1543 1543 1543 1543 1543 1543
1522 1524 1525 1527 1528 1529 1530 1531 1532 1534 1535 1537 1539 1540 1540 1541 1542 1542 1542 1542 1542 1542 1542 1543 1543 1543 1543 1544 1543 1543 1543 1544 1544 1544 1544 1543 1542 1542 1542 1542 1541 1541 1541
1520 1522 1523 1525 1526 1527 1528 1530 1531 1532 1534 1535 1537 1538 1539 1539 1540 1540 1540 1540 1540 1540 1541 1541 1541 1541 1542 1542 1542 1542 1542 1542 1542 1542 1541 1542 1541 1542 1540 1541 1540 1539 1538
1517 1519 1520 1522 1524 1525 1527 1528 1529 1530 1532 1533 1535 1535 1537 1537 1538 1538 1538 1538 1538 1538 1538 1539 1539 1539 1540 1540 1540 1540 1540 1540 1540 1540 1540 1540 1539 1539 1539 1538 1538 1537 1537
1515 1517 1519 1520 1522 1524 1525 1526 1527 1528 1530 1531 1532 1533 1534 1534 1535 1536 1536 1536 1537 1536 1536 1536 1536 1537 1537 1537 1537 1537 1537 1537 1537 1537 1538 1538 1537 1537 1537 1536 1535 1535 1535
1513 1514 1516 1518 1519 1521 1522 1524 1525 1526 1527 1529 1530 1530 1531 1532 1532 1533 1534 1534 1534 1534 1534 1534 1534 1534 1534 1534 1535 1535 1535 1535 1534 1534 1535 1535 1534 1534 1534 1534 1533 1533 1532
1510 1512 1513 1515 1517 1518 1520 1521 1522 1523 1525 1526 1527 1528 1529 1529 1530 1530 1531 1531 1531 1532 1532 1531 1531 1531 1531 1532 1532 1532 1532 1532 1531 1532 1532 1531 1531 1531 1531 1531 1531 1530 1530
1508 1510 1511 1513 1514 1516 1517 1518 1520 1521 1522 1523 1524 1525 1526 1526 1527 1527 1527 1528 1528 1529 1528 1528 1528 1529 1529 1529 1529 1529 1529 1529 1529 1529 1529 1529 1528 1528 1528 1528 1528 1529 1527
1507 1508 1509 1511 1512 1513 1514 1516 1517 1518 1519 1521 1522 1522 1522 1523 1523 1524 1524 1524 1524 1525 1525 1525 1525 1526 1525 1525 1525 1525 1526 1526 1525 1525 1525 1525 1526 1525 1525 1524 1524 1525 1525
1505 1506 1507 1509 1510 1511 1512 1513 1514 1515 1517 1518 1518 1519 1519 1520 1520 1520 1520 1521 1521 1521 1521 1522 1522 1522 1522 1522 1522 1522 1522 1522 1522 1522 1522 1522 1522 1522 1522 1522 1521 1521 1522
1504 1505 1506 1507 1508 1509 1510 1511 1512 1513 1514 1515 1516 1516 1517 1517 1517 1517 1517 1518 1518 1518 1518 1518 1519 1519 1519 1519 1518 1518 1519 1519 1518 1518 1518 1518 1519 1518 1519 1519 1519 1519 1519
1504 1505 1506 1506 1507 1507 1508 1509 1510 1510 1511 1512 1513 1513 1514 1514 1514 1514 1514 1514 1514 1515 1515 1515 1515 1515 1515 1515 1515 1515 1515 1515 1515 1515 1515 1515 1515 1515 1515 1515 1515 1516 1516
1503 1504 1505 1506 1506 1506 1506 1506 1507 1508 1509 1509 1510 1510 1510 1511 1511 1511 1511 1511 1511 1511 1511 1511 1511 1511 1511 1511 1511 1511 1511 1511 1511 1511 1511 1511 1511 1511 1511 1511 1512 1512 1512
1502 1503 1504 1504 1504 1505 1504 1504 1505 1505 1506 1506 1507 1507 1507 1507 1507 1507 1507 1507 1507 1508 1507 1507 1507 1507 1507 1507 1507 1507 1507 1507 1507 1507 1507 1507 1507 1507 1507 1508 1508 1508 1509
1501 1502 1502 1502 1502 1502 1502 1502 1502 1502 1502 1503 1503 1504 1504 1504 1504 1504 1504 1504 1503 1504 1504 1503 1503 1503 1503 1503 1503 1503 1503 1503 1503 1503 1503 1503 1503 1503 1504 1504 1505 1505 1505
1500 1500 1500 1500 1500 1499 1499 1499 1499 1499 1499 1500 1500 1500 1500 1500 1500 1501 1501 1500 1500 1500 1500 1500 1499 1499 1499 1499 1499 1499 1499 1499 1499 1499 1499 1500 1500 1500 1500 1500 1501 1501 1501
1498 1498 1498 1498 1497 1497 1497 1497 1497 1496 1496 1496 1496 1496 1497 1497 1497 1497 1497 1497 1497 1497 1496 1496 1496 1495 1495 1495 1495 1495 1495 1495 1495 1494 1494 1495 1495 1496 1496 1497 1497 1497 1498
1496 1496 1496 1495 1495 1494 1493 1493 1493 1493 1493 1493 1493 1493 1493 1493 1493 1494 1494 1494 1494 1493 1493 1493 1493 1492 1492 1492 1492 1492 1492 1492 1491 1490 1491 1491 1492 1492 1493 1493 1493 1494 1494
1495 1494 1494 1493 1492 1492 1491 1491 1490 1490 1490 1489 1489 1490 1490 1490 1490 1491 1491 1491 1491 1490 1490 1490 1490 1490 1490 1490 1490 1490 1490 1490 1489 1488 1488 1488 1489 1489 1489 1490 1490 1490 1490
1493 1492 1492 1491 1491 1490 1489 1489 1488 1487 1487 1487 1487 1487 1487 1488 1488 1488 1488 1488 1488 1488 1488 1487 1487 1487 1487 1487 1487 1487 1487 1487 1487 1487 1486 1486 1486 1486 1486 1486 1487 1487 1487
1492 1491 1490 1490 1489 1488 1488 1487 1486 1486 1485 1485 1485 1485 1485 1486 1486 1485 1485 1485 1485 1486 1486 1486 1485 1486 1485 1485 1485 1485 1485 1485 1485 1484 1484 1483 1483 1483 1483 1484 1484 1484 1484
1491 1490 1490 1489 1488 1487 1487 1486 1485 1484 1484 1483 1483 1483 1483 1483 1483 1483 1483 1483 1483 1484 1484 1484 1484 1484 1484 1483 1483 1483 1483 1482 1482 1482 1481 1481 1481 1481 1481 1481 1481 1482 1482
1489 1489 1488 1488 1487 1486 1486 1485 1484 1483 1483 1482 1482 1481 1481 1481 1481 1481 1482 1482 1482 1482 1482 1482 1482 1482 1482 1482 1481 1481 1481 1480 1480 1480 1479 1479 1479 1479 1479 1479 1479 1480 1480
1487 1487 1486 1486 1486 1485 1485 1484 1483 1482 1482 1481 1481 1480 1480 1480 1479 1480 1480 1480 1480 1480 1480 1480 1480 1480 1479 1479 1478 1478 1478 1478 1477 1477 1477 1478 1477 1477 1477 1477 1477 1477 1478
1486 1485 1485 1485 1485 1484 1484 1483 1482 1481 1481 1481 1480 1480 1480 1479 1479 1479 1478 1478 1478 1478 1478 1478 1478 1477 1477 1476 1476 1475 1476 1475 1475 1475 1475 1475 1476 1475 1475 1475 1475 1475 1475